Location: Luxembourg
(49.6117°N, 6.1300°E)
Time: 13:05:06
(UTC+01:00)

ISS - Pass Details

Date: 02 February 2019
Orbit: 403 x 411 km, 51.6° (Epoch: 23 February)

Event Time Altitude Azimuth Distance (km) Brightness Sun altitude
Rises 19:37:45 0° 286° (WNW) 2,338 1.3 -20.5°
Reaches altitude 10° 19:39:51 10° 288° (WNW) 1,478 0.0 -20.8°
Enters shadow 19:42:44 64° 301° (WNW) 458 -3.5 -21.3°
